Tracking 30995 objects as of 5-Jul-2025
HD Live streaming from Space Station
objects crossing your sky now

THORAD AGENA D DEB

Track THORAD AGENA D DEB now!
10-day predictions


NORAD ID: 5958
Int'l Code: 1970-025MP
Perigee: 990.9 km
Apogee: 1,065.1 km
Inclination: 99.5 °
Period: 105.6 minutes
Semi major axis: 7398 km
RCS: 0.0442 m2 (small)
Launch date: April 8, 1970
Source: United States (US)
Launch site: AIR FORCE WESTERN TEST RANGE (AFWTR)

Note: This is SATELLITE DEBRIS
Your satellite tracking list
Your tracking list is empty




NASA's NSSDC Master Catalog

Two Line Element Set (TLE):
1 05958U 70025MP  25186.22411782  .00000430  00000-0  59001-3 0  9995
2 05958  99.5057  95.0618 0050088 279.9221 233.3602 13.64092463727896
Source of the keplerian elements: AFSPC